GW4405 Weather Reports


time (UTC)temp
C
wind
direction
speed
KPH
gust
KPH
rain 1hr
cm
rain 24hr
cm
rain mn
cm
humidity
%
barometer
mb
20260509135508 15 351 4.8 6.4 0.00 0.00 0.00 49 1021.8
20260509135005 15 188 9.7 16.1 0.00 0.00 0.00 50 1021.8
20260509134502 15 197 4.8 6.4 0.00 0.00 0.00 50 1021.7
20260509134000 15 209 6.4 11.3 0.00 0.00 0.00 51 1021.5
20260509133456 14 1 8.0 16.1 0.00 0.00 0.00 52 1021.3
20260509132954 14 221 4.8 6.4 0.00 0.00 0.00 53 1021.2
20260509132452 14 190 6.4 9.7 0.00 0.00 0.00 53 1021.2
20260509131949 14 137 3.2 4.8 0.00 0.00 0.00 53 1021.2
20260509131446 14 188 3.2 9.7 0.00 0.00 0.00 54 1021.2
20260509130943 13 75 1.6 3.2 0.00 0.00 0.00 55 1021.0
20260509130438 13 146 4.8 9.7 0.00 0.00 0.00 55 1020.8
20260509125935 13 144 6.4 12.9 0.00 0.00 0.00 54 1020.7
20260509125432 13 212 3.2 4.8 0.00 0.00 0.00 56 1020.6
20260509124928 13 195 3.2 4.8 0.00 0.00 0.00 56 1020.4
20260509124425 13 225 8.0 11.3 0.00 0.00 0.00 56 1020.4
20260509123923 13 121 1.6 3.2 0.00 0.00 0.00 57 1020.4
20260509123420 13 153 1.6 1.6 0.00 0.00 0.00 57 1020.2
20260509122915 13 175 9.7 14.5 0.00 0.00 0.00 57 1020.3
20260509122413 13 217 12.9 16.1 0.00 0.00 0.00 58 1020.1
20260509121909 13 165 12.9 16.1 0.00 0.00 0.00 56 1020.3
20260509121406 13 145 4.8 6.4 0.00 0.00 0.00 58 1020.1
20260509120905 13 180 8.0 11.3 0.00 0.00 0.00 58 1019.9
20260509120402 13 213 6.4 6.4 0.00 0.00 0.00 58 1019.8
20260509115900 13 164 9.7 14.5 0.00 0.00 0.00 57 1019.6
20260509115357 13 176 3.2 3.2 0.00 0.00 0.00 59 1019.5
20260509114855 13 177 1.6 3.2 0.00 0.00 0.00 58 1019.3
20260509114353 13 190 11.3 14.5 0.00 0.00 0.00 58 1019.4
20260509113852 13 190 6.4 11.3 0.00 0.00 0.00 59 1019.3
20260509113349 13 179 6.4 14.5 0.00 0.00 0.00 59 1019.2
20260509112845 13 214 12.9 14.5 0.00 0.00 0.00 59 1019.1
20260509112342 13 193 6.4 11.3 0.00 0.00 0.00 59 1018.9
20260509111840 13 208 8.0 9.7 0.00 0.00 0.00 58 1018.9
20260509111336 13 154 6.4 11.3 0.00 0.00 0.00 59 1018.6
20260509110834 13 152 8.0 11.3 0.00 0.00 0.00 59 1018.4
20260509110330 13 119 14.5 22.5 0.00 0.00 0.00 58 1018.0
20260509105829 13 194 4.8 9.7 0.00 0.00 0.00 59 1018.2
20260509105326 13 192 11.3 12.9 0.00 0.00 0.00 59 1018.1
20260509104823 13 175 8.0 14.5 0.00 0.00 0.00 59 1017.9
20260509104319 13 147 14.5 17.7 0.00 0.00 0.00 60 1017.6
20260509103817 13 206 8.0 12.9 0.00 0.00 0.00 59 1017.6
20260509103314 13 186 4.8 9.7 0.00 0.00 0.00 59 1017.7
20260509102813 13 173 9.7 12.9 0.00 0.00 0.00 59 1017.6
20260509102310 13 209 8.0 11.3 0.00 0.00 0.00 59 1017.3
20260509101806 13 185 11.3 14.5 0.00 0.00 0.00 60 1017.5
20260509101302 13 158 6.4 11.3 0.00 0.00 0.00 60 1017.4
20260509100800 13 183 8.0 11.3 0.00 0.00 0.00 60 1017.4
20260509100257 13 111 3.2 4.8 0.00 0.00 0.00 60 1017.1
20260509095753 13 182 3.2 3.2 0.00 0.00 0.00 61 1017.1
20260509095251 13 168 4.8 6.4 0.00 0.00 0.00 61 1016.7
20260509094748 13 160 9.7 12.9 0.00 0.00 0.00 63 1016.6
20260509094244 13 162 3.2 4.8 0.00 0.00 0.00 62 1016.2
20260509093742 13 181 6.4 9.7 0.00 0.00 0.00 62 1016.3
20260509093239 13 193 4.8 9.7 0.00 0.00 0.00 62 1015.9
20260509092738 13 113 4.8 6.4 0.00 0.00 0.00 62 1016.0
20260509092235 13 174 3.2 3.2 0.00 0.00 0.00 61 1016.0
20260509091733 13 82 3.2 4.8 0.00 0.00 0.00 60 1016.1
20260509091229 13 206 8.0 11.3 0.00 0.00 0.00 60 1016.0
20260509090727 13 120 6.4 9.7 0.00 0.00 0.00 59 1016.0
20260509090224 13 181 1.6 3.2 0.00 0.00 0.00 61 1015.5
20260509085722 13 115 3.2 4.8 0.00 0.00 0.00 61 1015.2
20260509085219 13 148 4.8 4.8 0.00 0.00 0.00 60 1015.2
20260509084715 13 171 1.6 1.6 0.00 0.00 0.00 61 1015.8
20260509084212 13 166 1.6 1.6 0.00 0.00 0.00 61 1015.5
20260509083710 13 192 0.0 3.2 0.00 0.00 0.00 60 1015.2
20260509083206 13 155 0.0 0.0 0.00 0.00 0.00 59 1015.0
20260509082703 14 110 3.2 3.2 0.00 0.00 0.00 59 1014.8
20260509082159 14 139 3.2 3.2 0.00 0.00 0.00 57 1014.5
20260509081657 14 142 3.2 4.8 0.00 0.00 0.00 56 1014.5
20260509081154 14 178 1.6 3.2 0.00 0.00 0.00 56 1014.3
20260509080652 14 70 4.8 6.4 0.00 0.00 0.00 55 1013.7
20260509080150 14 46 0.0 1.6 0.00 0.00 0.00 56 1013.7
20260509075648 14 74 4.8 6.4 0.00 0.00 0.00 57 1013.4
20260509075145 14 71 1.6 1.6 0.00 0.00 0.00 59 1013.4
20260509074642 14 191 3.2 4.8 0.00 0.00 0.00 60 1013.5
20260509074138 14 145 1.6 1.6 0.00 0.00 0.00 61 1013.6
20260509073635 14 165 3.2 4.8 0.00 0.00 0.00 62 1013.4
20260509073131 14 201 1.6 1.6 0.00 0.00 0.00 65 1013.7
20260509072628 13 200 4.8 4.8 0.00 0.00 0.00 67 1013.8
20260509072125 13 114 3.2 4.8 0.00 0.00 0.00 69 1013.7
20260509071622 13 130 1.6 1.6 0.00 0.00 0.00 71 1013.7
20260509071119 13 144 4.8 6.4 0.00 0.00 0.00 71 1013.9
20260509070616 13 115 1.6 3.2 0.00 0.00 0.00 72 1013.8
20260509070112 13 106 1.6 3.2 0.00 0.00 0.00 71 1013.7
20260509065608 13 159 3.2 4.8 0.00 0.00 0.00 71 1013.8
20260509065104 13 152 0.0 0.0 0.00 0.00 0.00 70 1013.8
20260509064602 13 160 6.4 9.7 0.00 0.00 0.00 70 1013.5
20260509064100 13 76 1.6 3.2 0.00 0.00 0.00 69 1013.6
20260509063555 13 141 1.6 1.6 0.00 0.00 0.00 69 1013.7
20260509063053 13 201 1.6 4.8 0.00 0.00 0.00 68 1013.7
20260509062550 13 324 1.6 1.6 0.00 0.00 0.00 67 1013.4
20260509062047 13 83 8.0 11.3 0.00 0.00 0.00 66 1013.0
20260509061543 13 196 3.2 4.8 0.00 0.00 0.00 66 1013.4
20260509061041 13 186 0.0 0.0 0.00 0.00 0.00 67 1013.5
20260509060539 13 209 3.2 4.8 0.00 0.00 0.00 67 1013.2
20260509060034 13 187 6.4 9.7 0.00 0.00 0.00 69 1013.2
20260509055530 13 145 1.6 1.6 0.00 0.00 0.00 70 1013.4
20260509055026 13 144 1.6 1.6 0.00 0.00 0.00 70 1013.6
20260509054523 13 166 0.0 1.6 0.00 0.00 0.00 70 1013.8
20260509054021 13 170 0.0 1.6 0.00 0.00 0.00 70 1013.6
20260509053519 13 196 4.8 4.8 0.00 0.00 0.00 70 1013.6
20260509053016 13 154 1.6 3.2 0.00 0.00 0.00 68 1013.8
20260509052513 13 165 1.6 3.2 0.00 0.00 0.00 68 1014.4
20260509052012 13 165 1.6 1.6 0.00 0.00 0.00 68 1014.0
20260509051509 13 156 1.6 3.2 0.00 0.00 0.00 67 1014.4
20260509051006 13 172 3.2 4.8 0.00 0.00 0.00 67 1014.1
20260509050502 13 201 6.4 9.7 0.00 0.00 0.00 67 1014.3
20260509045959 14 174 3.2 4.8 0.00 0.00 0.00 67 1014.1
20260509045456 14 223 9.7 11.3 0.00 0.00 0.00 66 1013.9
20260509044953 14 117 4.8 4.8 0.00 0.00 0.00 66 1014.0
20260509044451 14 194 6.4 6.4 0.00 0.00 0.00 65 1013.8
20260509043948 14 209 6.4 6.4 0.00 0.00 0.00 65 1014.0
20260509043443 14 189 3.2 3.2 0.00 0.00 0.00 65 1013.7
20260509042939 14 202 8.0 9.7 0.00 0.00 0.00 64 1013.7
20260509042436 15 207 6.4 14.5 0.00 0.00 0.00 64 1013.6
20260509041932 15 189 3.2 4.8 0.00 0.00 0.00 64 1013.7
20260509041429 15 165 1.6 3.2 0.00 0.00 0.00 63 1013.9
20260509040927 15 165 3.2 3.2 0.00 0.00 0.00 63 1014.0
20260509040425 15 192 3.2 3.2 0.00 0.00 0.00 63 1014.0
20260509035922 15 176 4.8 4.8 0.00 0.00 0.00 63 1014.0
20260509035419 15 178 3.2 6.4 0.00 0.00 0.00 63 1014.3
20260509034915 15 200 3.2 6.4 0.00 0.00 0.00 62 1014.5
20260509034413 15 167 1.6 3.2 0.00 0.00 0.00 62 1014.5
20260509033910 15 144 3.2 4.8 0.00 0.00 0.00 62 1014.5
20260509033407 15 173 1.6 1.6 0.00 0.00 0.00 62 1014.6
20260509032903 15 211 6.4 6.4 0.00 0.00 0.00 61 1014.3
20260509032400 15 178 3.2 3.2 0.00 0.00 0.00 62 1014.1
20260509031859 15 187 3.2 3.2 0.00 0.00 0.00 62 1014.1
20260509031356 15 136 3.2 4.8 0.00 0.00 0.00 61 1013.9
20260509030853 15 235 1.6 3.2 0.00 0.00 0.00 61 1013.7
20260509030351 15 179 1.6 1.6 0.00 0.00 0.00 61 1013.4
20260509025848 15 168 3.2 3.2 0.00 0.18 0.18 61 1013.6
20260509025343 15 178 3.2 4.8 0.00 0.18 0.18 61 1013.5
20260509024839 15 208 1.6 1.6 0.00 0.18 0.18 62 1013.7
20260509024335 14 190 4.8 6.4 0.00 0.18 0.18 61 1013.6
20260509023833 14 222 3.2 3.2 0.00 0.18 0.18 64 1013.6
20260509023330 14 201 4.8 4.8 0.00 0.18 0.18 64 1013.3
20260509022826 14 179 1.6 1.6 0.00 0.18 0.18 65 1013.6
20260509022324 13 193 3.2 3.2 0.00 0.18 0.18 66 1013.8
20260509021820 13 195 3.2 3.2 0.00 0.18 0.18 67 1013.6
20260509021318 13 175 0.0 0.0 0.00 0.18 0.18 71 1013.8
20260509020815 13 155 0.0 0.0 0.00 0.18 0.18 72 1013.3
20260509020313 13 188 1.6 1.6 0.00 0.18 0.18 71 1013.3
20260509015811 13 173 0.0 0.0 0.00 0.18 0.18 74 1013.3
20260509015309 13 163 0.0 0.0 0.00 0.18 0.18 76 1013.3
20260509014805 13 160 0.0 0.0 0.00 0.18 0.18 74 1013.3
20260509014302 13 160 0.0 0.0 0.00 0.18 0.18 70 1013.3
20260509013758 13 112 0.0 0.0 0.00 0.18 0.18 72 1013.2
20260509013254 13 153 0.0 0.0 0.00 0.18 0.18 75 1013.2
20260509012751 13 163 0.0 0.0 0.00 0.18 0.18 75 1013.3
20260509012248 14 132 0.0 0.0 0.00 0.18 0.18 73 1013.3
20260509011745 14 122 0.0 0.0 0.00 0.18 0.18 72 1013.3
20260509011242 14 160 0.0 0.0 0.00 0.18 0.18 70 1013.2
20260509010740 14 166 0.0 0.0 0.00 0.18 0.18 67 1013.3
20260509010237 14 147 0.0 0.0 0.00 0.18 0.18 68 1012.8
20260509005734 15 144 1.6 1.6 0.00 0.18 0.18 66 1012.8
20260509005231 15 154 0.0 0.0 0.00 0.18 0.18 68 1012.8
20260509004725 15 130 0.0 0.0 0.00 0.18 0.18 67 1012.6
20260509004223 15 200 1.6 1.6 0.00 0.18 0.18 66 1012.6
20260509003721 15 88 0.0 1.6 0.00 0.18 0.18 67 1012.5
20260509003219 15 167 0.0 1.6 0.00 0.18 0.18 66 1012.6
20260509002716 15 194 0.0 1.6 0.00 0.18 0.18 68 1012.6
20260509002213 15 167 0.0 0.0 0.00 0.18 0.18 66 1012.3
20260509001710 15 194 3.2 3.2 0.00 0.18 0.18 67 1012.4
20260509001206 15 163 0.0 0.0 0.00 0.18 0.18 70 1012.5
20260509000704 15 173 0.0 0.0 0.00 0.18 0.18 70 1012.5
20260509000201 15 167 1.6 1.6 0.00 0.18 0.18 69 1012.5
20260508235658 15 161 3.2 3.2 0.00 0.18 0.18 70 1012.4
20260508235154 15 176 1.6 3.2 0.00 0.18 0.18 71 1012.4
20260508234652 15 144 1.6 3.2 0.00 0.18 0.18 70 1012.5
20260508234148 15 172 0.0 0.0 0.00 0.18 0.18 71 1012.1
20260508233648 15 201 1.6 1.6 0.00 0.18 0.18 71 1012.1
20260508233145 15 174 0.0 1.6 0.00 0.18 0.18 71 1012.3
20260508232642 15 158 4.8 6.4 0.00 0.18 0.18 73 1012.1
20260508232139 15 152 0.0 1.6 0.00 0.18 0.18 73 1011.9
20260508231637 15 184 4.8 4.8 0.00 0.18 0.18 73 1012.0
20260508231133 15 152 1.6 1.6 0.00 0.18 0.18 73 1011.9
20260508230629 15 175 1.6 3.2 0.00 0.18 0.18 73 1011.8
20260508230126 15 159 1.6 1.6 0.00 0.18 0.18 73 1012.1
20260508225625 15 173 0.0 0.0 0.00 0.18 0.18 74 1012.2
20260508225120 15 167 0.0 1.6 0.00 0.18 0.18 71 1012.3
20260508224618 15 158 1.6 1.6 0.00 0.18 0.18 71 1012.7
20260508224115 15 141 0.0 0.0 0.00 0.18 0.18 71 1012.7
20260508223613 15 150 0.0 0.0 0.00 0.18 0.18 71 1013.0
20260508223110 15 149 0.0 1.6 0.00 0.18 0.18 70 1012.9
20260508222607 15 156 0.0 0.0 0.00 0.18 0.18 69 1013.3
20260508222104 15 148 0.0 1.6 0.00 0.18 0.18 70 1013.1
20260508221600 15 168 1.6 1.6 0.00 0.18 0.18 69 1013.2
20260508221057 16 153 0.0 0.0 0.00 0.18 0.18 68 1013.2
20260508220553 16 155 0.0 1.6 0.00 0.18 0.18 67 1012.9
20260508220049 16 181 1.6 1.6 0.00 0.18 0.18 67 1013.0
20260508215547 16 144 1.6 1.6 0.00 0.18 0.18 66 1013.0
20260508215043 16 168 0.0 0.0 0.00 0.18 0.18 66 1012.8
20260508214541 16 184 3.2 4.8 0.00 0.18 0.18 65 1012.9
20260508214037 16 158 0.0 1.6 0.00 0.18 0.18 64 1013.0
20260508213535 16 207 1.6 1.6 0.00 0.18 0.18 63 1013.0
20260508213030 16 143 1.6 3.2 0.00 0.18 0.18 63 1013.1
20260508212527 16 222 6.4 6.4 0.00 0.18 0.18 62 1013.3
20260508212023 16 191 1.6 3.2 0.00 0.18 0.18 63 1013.0
20260508211519 16 125 3.2 6.4 0.00 0.18 0.18 61 1013.4
20260508211015 16 188 6.4 9.7 0.00 0.18 0.18 62 1013.0
20260508210512 16 181 4.8 6.4 0.00 0.18 0.18 62 1012.9
20260508210010 16 165 4.8 6.4 0.00 0.18 0.18 61 1012.8
20260508205506 16 123 1.6 3.2 0.00 0.18 0.18 61 1012.8
20260508205002 16 206 8.0 11.3 0.00 0.18 0.18 61 1012.7
20260508204459 16 179 1.6 3.2 0.00 0.18 0.18 61 1012.7
20260508203955 17 197 8.0 11.3 0.00 0.18 0.18 60 1012.7
20260508203451 17 203 4.8 4.8 0.00 0.18 0.18 59 1012.6
20260508202947 17 138 4.8 9.7 0.00 0.18 0.18 59 1012.5
20260508202444 17 153 6.4 9.7 0.00 0.18 0.18 58 1012.5
20260508201941 17 143 14.5 17.7 0.00 0.18 0.18 57 1012.7
20260508201438 17 228 9.7 14.5 0.00 0.18 0.18 57 1012.5
20260508200935 17 118 11.3 14.5 0.00 0.18 0.18 57 1012.6
20260508200432 17 291 8.0 11.3 0.00 0.18 0.18 57 1012.8
20260508195927 17 178 4.8 4.8 0.00 0.18 0.18 58 1012.5
20260508195425 17 195 4.8 6.4 0.00 0.18 0.18 58 1012.4
20260508194921 17 192 11.3 16.1 0.00 0.18 0.18 55 1012.9
20260508194418 17 176 9.7 14.5 0.00 0.18 0.18 55 1012.6
20260508193915 17 143 6.4 12.9 0.00 0.18 0.18 55 1012.9
20260508193412 17 194 11.3 14.5 0.00 0.18 0.18 57 1012.8
20260508192908 18 130 11.3 16.1 0.00 0.18 0.18 55 1012.8
20260508192405 18 227 4.8 6.4 0.00 0.18 0.18 54 1012.6
20260508191902 18 177 12.9 16.1 0.00 0.18 0.18 54 1012.6
20260508191359 17 185 6.4 11.3 0.00 0.18 0.18 55 1012.4
20260508190856 18 196 6.4 6.4 0.00 0.18 0.18 55 1012.2
20260508190352 18 186 9.7 16.1 0.00 0.18 0.18 52 1012.4
20260508185848 18 161 9.7 14.5 0.00 0.18 0.18 52 1012.4
20260508185346 18 152 8.0 9.7 0.00 0.18 0.18 52 1012.4
20260508184843 18 224 11.3 14.5 0.00 0.18 0.18 52 1012.7
20260508184341 18 194 9.7 11.3 0.00 0.18 0.18 52 1012.6
20260508183837 18 131 8.0 11.3 0.00 0.18 0.18 51 1012.6
20260508183334 18 180 17.7 25.7 0.00 0.18 0.18 50 1012.9
20260508182830 18 183 11.3 16.1 0.00 0.18 0.18 48 1012.9
20260508182327 18 193 11.3 14.5 0.00 0.18 0.18 48 1012.7
20260508181822 19 176 9.7 14.5 0.00 0.18 0.18 50 1012.7
20260508181319 18 174 9.7 12.9 0.00 0.18 0.18 51 1012.8
20260508180816 18 189 8.0 11.3 0.00 0.18 0.18 51 1012.7
20260508180313 19 127 6.4 9.7 0.00 0.18 0.18 50 1012.7
20260508175809 18 147 4.8 4.8 0.00 0.18 0.18 50 1012.6
20260508175306 18 159 6.4 12.9 0.00 0.18 0.18 51 1012.8
20260508174804 18 169 12.9 20.9 0.00 0.18 0.18 50 1012.8
20260508174301 18 214 4.8 4.8 0.00 0.18 0.18 50 1012.6
20260508173752 18 153 8.0 12.9 0.00 0.18 0.18 49 1012.7
20260508173248 18 193 9.7 14.5 0.00 0.18 0.18 48 1012.7
20260508172744 18 193 12.9 17.7 0.00 0.18 0.18 46 1013.0
20260508172242 19 210 8.0 9.7 0.00 0.18 0.18 47 1012.7
20260508171738 19 199 9.7 16.1 0.00 0.18 0.18 48 1013.0
20260508171234 19 189 8.0 11.3 0.00 0.18 0.18 50 1013.0
20260508170731 19 156 9.7 14.5 0.00 0.18 0.18 50 1013.0
20260508170229 20 184 6.4 9.7 0.00 0.18 0.18 49 1013.2
20260508165726 20 177 6.4 6.4 0.00 0.18 0.18 49 1013.3
20260508165223 19 92 3.2 4.8 0.00 0.18 0.18 43 1013.1
20260508164720 20 176 9.7 12.9 0.00 0.18 0.18 44 1013.3
20260508164216 19 129 4.8 4.8 0.00 0.18 0.18 45 1013.3
20260508163714 18 202 12.9 17.7 0.00 0.18 0.18 45 1013.4
20260508163211 19 197 0.0 3.2 0.00 0.18 0.18 56 1013.4
20260508162707 18 56 4.8 6.4 0.00 0.18 0.18 54 1013.5
20260508162204 18 184 4.8 6.4 0.00 0.18 0.18 53 1013.4
20260508161701 18 186 3.2 4.8 0.00 0.18 0.18 54 1013.5
20260508161158 18 215 11.3 16.1 0.00 0.18 0.18 50 1013.5
20260508160656 18 238 9.7 14.5 0.00 0.18 0.18 50 1013.9
20260508160154 17 180 8.0 12.9 0.00 0.18 0.18 50 1013.9
20260508155651 17 189 8.0 12.9 0.00 0.18 0.18 51 1013.9
20260508155148 17 191 9.7 11.3 0.00 0.18 0.18 52 1014.0
20260508154645 17 178 9.7 12.9 0.00 0.18 0.18 53 1014.1
20260508154141 18 146 11.3 12.9 0.00 0.18 0.18 51 1014.3
20260508153638 18 205 8.0 9.7 0.00 0.18 0.18 51 1014.4
20260508153135 18 164 11.3 14.5 0.00 0.18 0.18 52 1014.3
20260508152632 18 190 9.7 11.3 0.00 0.18 0.18 53 1014.3
20260508152127 17 226 3.2 4.8 0.00 0.18 0.18 57 1014.5
20260508151624 18 190 4.8 9.7 0.00 0.18 0.18 51 1014.7
20260508151121 18 194 11.3 12.9 0.00 0.18 0.18 49 1014.7
20260508150618 17 219 1.6 4.8 0.00 0.18 0.18 54 1014.7
20260508150114 18 140 1.6 3.2 0.00 0.18 0.18 52 1014.8
20260508145611 17 195 6.4 6.4 0.00 0.18 0.18 51 1014.8
20260508145107 17 270 1.6 3.2 0.00 0.18 0.18 53 1014.9
20260508144605 17 211 14.5 16.1 0.00 0.18 0.18 52 1014.8
20260508144102 18 160 3.2 3.2 0.00 0.18 0.18 53 1015.0
20260508143559 18 182 6.4 14.5 0.00 0.18 0.18 55 1015.1
20260508143056 18 174 3.2 4.8 0.00 0.18 0.18 53 1015.0
20260508142553 17 196 3.2 9.7 0.00 0.18 0.18 55 1015.1
20260508142049 17 183 8.0 11.3 0.00 0.18 0.18 53 1015.1
20260508141546 17 185 3.2 4.8 0.00 0.18 0.18 52 1015.2
20260508141044 17 170 9.7 12.9 0.00 0.18 0.18 52 1015.1
20260508140541 17 53 4.8 6.4 0.00 0.18 0.18 55 1014.9
20260508140037 17 62 6.4 6.4 0.00 0.18 0.18 52 1015.0